Weather History for Mayport NS, FL

Change the Weather History Date:

Tuesday, May 6, 2014

  Actual Average Record
Temperature  
Mean Temperature 78 °F -  
Max Temperature 89 °F 79 °F 95 °F (2012)
Min Temperature 68 °F 64 °F 55 °F (1997)
Cooling Degree Days 13    
Growing Degree Days 28 (Base 50)    
Moisture  
Dew Point 57 °F    
Average Humidity 52    
Maximum Humidity 73    
Minimum Humidity 28    
Precipitation  
Precipitation 0.00 in - - ()
Sea Level Pressure  
Sea Level Pressure 30.01 in    
Wind  
Wind Speed 6 mph (South)    
Max Wind Speed 13 mph    
Max Gust Speed -    
Visibility 10 miles    
Events      
Averages and records for this station are not official NWS values.
T = Trace of Precipitation, MM = Missing Value Source: NWS Daily Summary

Daily Weather History Graph

Daily Weather History Graph

Search for Another Location

Airport:

Trip Planner

Search our weather history database for the weather conditions in past years. The results will help you decide how hot, cold, wet, or windy it might be!

Date:

Astronomy

May. 06, 2014 Rise Set
Actual Time 6:38 AM EDT 8:07 PM EDT
Civil Twilight 6:12 AM EDT 8:32 PM EDT
Nautical Twilight 5:41 AM EDT 9:03 PM EDT
Astronomical Twilight 5:09 AM EDT 9:35 PM EDT
Moon 12:47 PM EDT (5/6) 1:29 AM EDT (5/6)
Length of Visible Light 14h 20m
Length of Day
13h 29m
Waxing Crescent, 46% of the Moon is Illuminated
May 6
Waxing Crescent
May 6
First Quarter
May 14
Full
May 21
Last Quarter
May 28
New

Hourly Weather History & Observations

Time (EDT) Temp. Heat Index Dew Point Humidity Pressure Visibility Wind Dir Wind Speed Gust Speed Precip Events Conditions
12:52 AM 69.1 °F - 57.9 °F 68% 30.00 in 10.0 mi SW 5.8 mph - N/A   Clear
1:52 AM 68.0 °F - 59.0 °F 73% 29.99 in 10.0 mi SW 5.8 mph - N/A   Clear
2:52 AM 70.0 °F - 57.9 °F 65% 29.98 in 10.0 mi WSW 4.6 mph - N/A   Clear
3:52 AM 70.0 °F - 57.0 °F 63% 29.97 in 10.0 mi WSW 5.8 mph - N/A   Clear
7:52 AM 70.0 °F - 57.9 °F 65% 30.03 in 10.0 mi WSW 3.5 mph - N/A   Clear
8:52 AM 73.9 °F - 55.9 °F 53% 30.04 in 10.0 mi Variable 4.6 mph - N/A   Clear
9:52 AM 78.1 °F - 55.0 °F 45% 30.05 in 10.0 mi Variable 4.6 mph - N/A   Clear
10:54 AM 84.0 °F 82.9 °F 55.0 °F 37% 30.05 in 10.0 mi Variable 5.8 mph - N/A   Clear
11:52 AM 84.9 °F - 52.0 °F 32% 30.05 in 10.0 mi West 5.8 mph - N/A   Clear
12:52 PM 87.1 °F - 51.1 °F 29% 30.04 in 10.0 mi Variable 4.6 mph - N/A   Clear
1:52 PM 88.0 °F - 51.1 °F 28% 30.02 in 10.0 mi Calm Calm - N/A   Clear
2:52 PM 84.0 °F 83.8 °F 59.0 °F 43% 30.01 in 10.0 mi SE 8.1 mph - N/A   Clear
3:52 PM 82.9 °F 82.8 °F 59.0 °F 44% 29.99 in 10.0 mi SE 10.4 mph - N/A   Clear
4:52 PM 82.9 °F 83.2 °F 60.1 °F 46% 29.98 in 10.0 mi SE 9.2 mph - N/A   Clear
5:52 PM 81.0 °F 81.9 °F 62.1 °F 52% 29.98 in 10.0 mi SE 9.2 mph - N/A   Clear
6:52 PM 79.0 °F - 60.1 °F 52% 29.97 in 10.0 mi SSE 12.7 mph - N/A   Clear
7:52 PM 77.0 °F - 57.9 °F 52% 29.98 in 10.0 mi SSE 10.4 mph - N/A   Clear
8:52 PM 75.9 °F - 55.9 °F 50% 30.00 in 10.0 mi SSE 11.5 mph - N/A   Clear
9:52 PM 72.0 °F - 57.9 °F 61% 30.01 in 10.0 mi South 5.8 mph - N/A   Clear
10:52 PM 72.0 °F - 59.0 °F 64% 30.02 in 10.0 mi South 8.1 mph - N/A   Clear
11:52 PM 70.0 °F - 59.0 °F 68% 30.03 in 10.0 mi South 5.8 mph - N/A   Clear